Location: Calvatone
(45.1167°N, 10.4333°E)
Time: 10:16:30
(UTC+00:00)

Cosmos 2228 - Pass Details

Date: 28 January 2023
Orbit: 585 x 612 km, 82.5° (Epoch: 28 March)

Event Time Altitude Azimuth Distance (km) Brightness Sun altitude
Rises 17:23:00 0° 359° (N) 2,831 6.3 -11.3°
Reaches altitude 10° 17:25:23 10° 9° (N) 1,922 5.4 -11.7°
Maximum altitude 17:29:15 33° 75° (ENE) 987 3.6 -12.4°
Drops below altitude 10° 17:33:05 10° 140° (SE) 1,904 5.3 -13.1°
Sets 17:35:25 0° 150° (SSE) 2,799 6.2 -13.5°
